| time (UTC) | temp F | wind direction | speed MPH | gust MPH | rain 1hr in | rain 24hr in | rain mn in | humidity % | barometer mb |
| 20260901133531 | 80 | 36 | 1.0 | 4.0 | 0.00 | 0.02 | 0.02 | 100 | 1015.9 |
| 20260901133026 | 80 | 65 | 1.0 | 4.0 | 0.00 | 0.02 | 0.02 | 100 | 1015.9 |
| 20260901132532 | 80 | 15 | 1.0 | 3.0 | 0.00 | 0.02 | 0.02 | 100 | 1015.9 |
| 20260901132026 | 80 | 342 | 1.0 | 4.0 | 0.00 | 0.02 | 0.02 | 100 | 1015.9 |
| 20260901131543 | 80 | 328 | 3.0 | 4.0 | 0.01 | 0.02 | 0.02 | 100 | 1015.9 |
| 20260901131039 | 80 | 360 | 1.0 | 3.0 | 0.01 | 0.02 | 0.02 | 100 | 1015.9 |
| 20260901130532 | 80 | 23 | 2.0 | 3.0 | 0.01 | 0.02 | 0.02 | 100 | 1015.9 |
| 20260901130027 | 80 | 349 | 1.0 | 2.0 | 0.01 | 0.02 | 0.02 | 100 | 1015.8 |
| 20260901125523 | 80 | 349 | 0.0 | 4.0 | 0.01 | 0.02 | 0.02 | 100 | 1015.8 |
| 20260901125032 | 79 | 311 | 1.0 | 4.0 | 0.01 | 0.02 | 0.02 | 100 | 1015.8 |
| 20260901124529 | 79 | 324 | 1.0 | 2.0 | 0.01 | 0.02 | 0.02 | 100 | 1015.8 |
| 20260901124025 | 79 | 324 | 1.0 | 3.0 | 0.01 | 0.02 | 0.02 | 100 | 1015.8 |
| 20260901123532 | 79 | 324 | 1.0 | 3.0 | 0.01 | 0.02 | 0.02 | 100 | 1015.8 |
| 20260901123049 | 79 | 340 | 1.0 | 3.0 | 0.01 | 0.02 | 0.02 | 100 | 1015.6 |
| 20260901122524 | 78 | 356 | 0.0 | 2.0 | 0.01 | 0.02 | 0.02 | 100 | 1015.6 |
| 20260901122036 | 78 | 360 | 1.0 | 2.0 | 0.01 | 0.02 | 0.02 | 100 | 1015.6 |
| 20260901121533 | 78 | 334 | 0.0 | 2.0 | 0.00 | 0.01 | 0.01 | 100 | 1015.4 |
| 20260901121028 | 77 | 338 | 0.0 | 2.0 | 0.00 | 0.01 | 0.01 | 100 | 1015.4 |
| 20260901120537 | 77 | 338 | 0.0 | 3.0 | 0.00 | 0.01 | 0.01 | 100 | 1015.4 |
| 20260901120030 | 77 | 323 | 1.0 | 3.0 | 0.00 | 0.01 | 0.01 | 100 | 1015.3 |
| 20260901115527 | 77 | 322 | 2.0 | 3.0 | 0.00 | 0.01 | 0.01 | 100 | 1015.3 |
| 20260901115035 | 77 | 272 | 1.0 | 2.0 | 0.00 | 0.01 | 0.01 | 100 | 1015.3 |
| 20260901114530 | 76 | 271 | 1.0 | 2.0 | 0.00 | 0.01 | 0.01 | 100 | 1015.1 |
| 20260901114026 | 76 | 271 | 0.0 | 2.0 | 0.00 | 0.01 | 0.01 | 100 | 1015.1 |
| 20260901113554 | 76 | 224 | 0.0 | 0.0 | 0.00 | 0.01 | 0.01 | 100 | 1015.1 |
| 20260901113030 | 76 | 224 | 0.0 | 0.0 | 0.00 | 0.01 | 0.01 | 100 | 1014.8 |
| 20260901112533 | 76 | 224 | 0.0 | 0.0 | 0.00 | 0.01 | 0.01 | 100 | 1014.8 |
| 20260901112026 | 76 | 224 | 0.0 | 0.0 | 0.00 | 0.01 | 0.01 | 100 | 1014.8 |
| 20260901111531 | 76 | 224 | 0.0 | 0.0 | 0.00 | 0.01 | 0.01 | 100 | 1014.6 |
| 20260901111027 | 76 | 224 | 0.0 | 0.0 | 0.00 | 0.01 | 0.01 | 100 | 1014.6 |
| 20260901110522 | 76 | 224 | 0.0 | 0.0 | 0.00 | 0.01 | 0.01 | 100 | 1014.6 |
| 20260901110100 | 76 | 224 | 0.0 | 0.0 | 0.00 | 0.01 | 0.01 | 100 | 1014.7 |
| 20260901105551 | 76 | 224 | 0.0 | 0.0 | 0.00 | 0.01 | 0.01 | 100 | 1014.7 |
| 20260901105024 | 76 | 224 | 0.0 | 0.0 | 0.00 | 0.01 | 0.01 | 100 | 1014.7 |
| 20260901104533 | 76 | 224 | 0.0 | 0.0 | 0.00 | 0.01 | 0.01 | 100 | 1014.5 |
| 20260901104029 | 76 | 224 | 0.0 | 0.0 | 0.00 | 0.01 | 0.01 | 100 | 1014.5 |
| 20260901103525 | 76 | 224 | 0.0 | 0.0 | 0.00 | 0.01 | 0.01 | 100 | 1014.5 |
| 20260901103022 | 76 | 224 | 0.0 | 0.0 | 0.00 | 0.01 | 0.01 | 100 | 1014.5 |
| 20260901102531 | 76 | 224 | 0.0 | 0.0 | 0.00 | 0.01 | 0.01 | 100 | 1014.5 |
| 20260901102027 | 76 | 224 | 0.0 | 0.0 | 0.00 | 0.01 | 0.01 | 100 | 1014.5 |
| 20260901101535 | 76 | 224 | 0.0 | 0.0 | 0.00 | 0.01 | 0.01 | 100 | 1014.5 |
| 20260901101052 | 76 | 224 | 0.0 | 0.0 | 0.00 | 0.01 | 0.01 | 100 | 1014.5 |
| 20260901100527 | 76 | 224 | 0.0 | 0.0 | 0.00 | 0.01 | 0.01 | 100 | 1014.5 |
| 20260901100043 | 76 | 224 | 0.0 | 0.0 | 0.00 | 0.01 | 0.01 | 100 | 1014.4 |
| 20260901095534 | 76 | 224 | 0.0 | 0.0 | 0.00 | 0.01 | 0.01 | 100 | 1014.4 |
| 20260901095030 | 76 | 224 | 0.0 | 0.0 | 0.00 | 0.01 | 0.01 | 100 | 1014.4 |
| 20260901094547 | 76 | 224 | 0.0 | 0.0 | 0.00 | 0.01 | 0.01 | 100 | 1014.4 |
| 20260901094035 | 76 | 224 | 0.0 | 0.0 | 0.00 | 0.01 | 0.01 | 100 | 1014.4 |
| 20260901093529 | 76 | 224 | 0.0 | 0.0 | 0.00 | 0.01 | 0.01 | 100 | 1014.4 |
| 20260901093025 | 76 | 224 | 0.0 | 0.0 | 0.00 | 0.01 | 0.01 | 100 | 1014.5 |
| 20260901092522 | 76 | 224 | 0.0 | 0.0 | 0.00 | 0.01 | 0.01 | 100 | 1014.5 |
| 20260901092037 | 76 | 224 | 0.0 | 0.0 | 0.00 | 0.01 | 0.01 | 100 | 1014.5 |
| 20260901091532 | 76 | 224 | 0.0 | 0.0 | 0.00 | 0.01 | 0.01 | 100 | 1014.6 |
| 20260901091029 | 76 | 224 | 0.0 | 0.0 | 0.00 | 0.01 | 0.01 | 100 | 1014.6 |
| 20260901090533 | 77 | 224 | 0.0 | 0.0 | 0.00 | 0.01 | 0.01 | 100 | 1014.6 |
| 20260901090026 | 77 | 224 | 0.0 | 0.0 | 0.00 | 0.01 | 0.01 | 100 | 1014.4 |
| 20260901085522 | 77 | 224 | 0.0 | 0.0 | 0.00 | 0.01 | 0.01 | 100 | 1014.4 |
| 20260901085030 | 77 | 224 | 0.0 | 0.0 | 0.00 | 0.01 | 0.01 | 100 | 1014.4 |
| 20260901084545 | 77 | 224 | 0.0 | 0.0 | 0.00 | 0.01 | 0.01 | 100 | 1014.4 |
| 20260901084031 | 77 | 224 | 0.0 | 0.0 | 0.00 | 0.01 | 0.01 | 100 | 1014.4 |
| 20260901083526 | 77 | 224 | 0.0 | 0.0 | 0.00 | 0.01 | 0.01 | 100 | 1014.4 |
| 20260901083035 | 77 | 224 | 0.0 | 0.0 | 0.00 | 0.01 | 0.01 | 100 | 1014.4 |
| 20260901082531 | 77 | 224 | 0.0 | 0.0 | 0.00 | 0.01 | 0.01 | 100 | 1014.4 |
| 20260901082025 | 77 | 224 | 0.0 | 1.0 | 0.00 | 0.01 | 0.01 | 100 | 1014.4 |
| 20260901081534 | 77 | 224 | 0.0 | 1.0 | 0.00 | 0.01 | 0.01 | 100 | 1014.6 |
| 20260901081031 | 77 | 224 | 0.0 | 2.0 | 0.00 | 0.01 | 0.01 | 100 | 1014.6 |
| 20260901080527 | 77 | 224 | 0.0 | 2.0 | 0.00 | 0.01 | 0.01 | 100 | 1014.6 |
| 20260901080035 | 77 | 224 | 1.0 | 2.0 | 0.00 | 0.01 | 0.01 | 100 | 1014.8 |
| 20260901075532 | 77 | 224 | 0.0 | 1.0 | 0.00 | 0.01 | 0.01 | 100 | 1014.8 |
| 20260901075027 | 77 | 224 | 0.0 | 1.0 | 0.00 | 0.01 | 0.01 | 100 | 1014.8 |
| 20260901074535 | 78 | 224 | 0.0 | 1.0 | 0.00 | 0.01 | 0.01 | 100 | 1014.8 |
| 20260901074031 | 78 | 224 | 0.0 | 1.0 | 0.00 | 0.01 | 0.01 | 100 | 1014.8 |
| 20260901073527 | 78 | 224 | 0.0 | 1.0 | 0.00 | 0.01 | 0.01 | 100 | 1014.8 |
| 20260901073037 | 78 | 224 | 0.0 | 1.0 | 0.00 | 0.01 | 0.01 | 100 | 1014.8 |
| 20260901072533 | 78 | 224 | 0.0 | 1.0 | 0.00 | 0.01 | 0.01 | 100 | 1014.8 |
| 20260901072029 | 78 | 224 | 0.0 | 1.0 | 0.00 | 0.01 | 0.01 | 100 | 1014.8 |
| 20260901071526 | 78 | 224 | 0.0 | 1.0 | 0.00 | 0.01 | 0.01 | 100 | 1014.8 |
| 20260901071035 | 78 | 224 | 0.0 | 1.0 | 0.00 | 0.01 | 0.01 | 100 | 1014.8 |
| 20260901070530 | 78 | 224 | 1.0 | 1.0 | 0.00 | 0.01 | 0.01 | 100 | 1014.8 |
| 20260901070023 | 78 | 224 | 0.0 | 2.0 | 0.00 | 0.01 | 0.01 | 100 | 1015.1 |
| 20260901065552 | 78 | 224 | 0.0 | 2.0 | 0.00 | 0.01 | 0.01 | 100 | 1015.1 |
| 20260901065027 | 78 | 224 | 0.0 | 1.0 | 0.00 | 0.01 | 0.01 | 100 | 1015.1 |
| 20260901064523 | 78 | 224 | 0.0 | 1.0 | 0.00 | 0.01 | 0.01 | 100 | 1015.3 |
| 20260901064028 | 78 | 224 | 0.0 | 3.0 | 0.00 | 0.01 | 0.01 | 100 | 1015.3 |
| 20260901063525 | 78 | 224 | 0.0 | 3.0 | 0.00 | 0.01 | 0.01 | 100 | 1015.3 |
| 20260901063033 | 79 | 200 | 0.0 | 3.0 | 0.00 | 0.01 | 0.01 | 100 | 1015.4 |
| 20260901062529 | 79 | 211 | 0.0 | 1.0 | 0.00 | 0.06 | 0.01 | 100 | 1015.4 |
| 20260901062044 | 79 | 211 | 0.0 | 0.0 | 0.00 | 0.06 | 0.01 | 100 | 1015.4 |
| 20260901061532 | 79 | 211 | 0.0 | 0.0 | 0.00 | 0.06 | 0.01 | 100 | 1015.3 |
| 20260901061029 | 79 | 211 | 0.0 | 0.0 | 0.00 | 0.06 | 0.01 | 100 | 1015.3 |
| 20260901060555 | 79 | 211 | 0.0 | 2.0 | 0.00 | 0.06 | 0.01 | 100 | 1015.3 |
| 20260901060029 | 79 | 211 | 1.0 | 2.0 | 0.01 | 0.06 | 0.01 | 100 | 1015.5 |
| 20260901055537 | 79 | 39 | 0.0 | 0.0 | 0.01 | 0.06 | 0.01 | 100 | 1015.5 |
| 20260901055033 | 79 | 39 | 0.0 | 0.0 | 0.01 | 0.06 | 0.01 | 100 | 1015.5 |
| 20260901054529 | 79 | 39 | 0.0 | 0.0 | 0.01 | 0.06 | 0.01 | 100 | 1015.8 |
| 20260901054036 | 79 | 39 | 0.0 | 0.0 | 0.01 | 0.06 | 0.01 | 100 | 1015.8 |
| 20260901053528 | 79 | 39 | 0.0 | 0.0 | 0.01 | 0.06 | 0.01 | 100 | 1015.8 |
| 20260901053022 | 79 | 39 | 0.0 | 0.0 | 0.01 | 0.06 | 0.01 | 100 | 1015.8 |
| 20260901052536 | 79 | 39 | 0.0 | 0.0 | 0.01 | 0.06 | 0.01 | 100 | 1015.8 |
| 20260901052032 | 79 | 39 | 0.0 | 0.0 | 0.01 | 0.06 | 0.01 | 100 | 1015.8 |
| 20260901051526 | 80 | 39 | 0.0 | 0.0 | 0.01 | 0.06 | 0.01 | 100 | 1015.9 |
| 20260901051026 | 80 | 39 | 0.0 | 0.0 | 0.01 | 0.06 | 0.01 | 100 | 1015.9 |
| 20260901050534 | 80 | 39 | 0.0 | 0.0 | 0.01 | 0.06 | 0.01 | 100 | 1015.9 |
| 20260901050051 | 80 | 39 | 0.0 | 0.0 | 0.00 | 0.05 | 0.00 | 100 | 1016.2 |
| 20260901045526 | 80 | 39 | 0.0 | 0.0 | 0.00 | 0.05 | 0.00 | 100 | 1016.2 |
| 20260901045030 | 80 | 39 | 0.0 | 0.0 | 0.00 | 0.05 | 0.00 | 100 | 1016.2 |
| 20260901044526 | 80 | 39 | 0.0 | 0.0 | 0.00 | 0.05 | 0.00 | 100 | 1016.3 |
| 20260901044021 | 80 | 39 | 0.0 | 0.0 | 0.00 | 0.05 | 0.00 | 100 | 1016.3 |
| 20260901043528 | 80 | 39 | 0.0 | 0.0 | 0.00 | 0.05 | 0.00 | 100 | 1016.3 |
| 20260901043024 | 80 | 39 | 0.0 | 0.0 | 0.00 | 0.05 | 0.00 | 100 | 1016.0 |
| 20260901042540 | 80 | 39 | 0.0 | 0.0 | 0.00 | 0.05 | 0.00 | 100 | 1016.0 |
| 20260901042030 | 80 | 39 | 0.0 | 1.0 | 0.00 | 0.05 | 0.00 | 100 | 1016.0 |
| 20260901041526 | 80 | 39 | 0.0 | 1.0 | 0.00 | 0.05 | 0.00 | 100 | 1015.9 |
| 20260901041041 | 80 | 39 | 0.0 | 0.0 | 0.00 | 0.05 | 0.00 | 100 | 1015.9 |
| 20260901040529 | 80 | 39 | 0.0 | 0.0 | 0.00 | 0.05 | 0.00 | 100 | 1015.9 |
| 20260901040025 | 80 | 39 | 0.0 | 1.0 | 0.00 | 0.05 | 0.05 | 99 | 1016.1 |
| 20260901035532 | 80 | 39 | 0.0 | 0.0 | 0.00 | 0.05 | 0.05 | 99 | 1016.1 |
| 20260901035026 | 80 | 39 | 0.0 | 0.0 | 0.00 | 0.05 | 0.05 | 98 | 1016.1 |
| 20260901034533 | 80 | 39 | 0.0 | 0.0 | 0.00 | 0.05 | 0.05 | 98 | 1016.2 |
| 20260901034030 | 80 | 39 | 0.0 | 0.0 | 0.00 | 0.05 | 0.05 | 98 | 1016.2 |
| 20260901033526 | 80 | 39 | 0.0 | 2.0 | 0.00 | 0.05 | 0.05 | 97 | 1016.2 |
| 20260901033033 | 80 | 39 | 0.0 | 2.0 | 0.00 | 0.05 | 0.05 | 96 | 1016.3 |
| 20260901032527 | 80 | 39 | 0.0 | 0.0 | 0.00 | 0.05 | 0.05 | 96 | 1016.3 |
| 20260901032034 | 80 | 39 | 0.0 | 0.0 | 0.00 | 0.05 | 0.05 | 96 | 1016.3 |
| 20260901031529 | 80 | 39 | 0.0 | 1.0 | 0.00 | 0.05 | 0.05 | 96 | 1016.4 |
| 20260901031034 | 80 | 39 | 0.0 | 1.0 | 0.00 | 0.05 | 0.05 | 95 | 1016.4 |
| 20260901030530 | 80 | 39 | 0.0 | 1.0 | 0.00 | 0.05 | 0.05 | 95 | 1016.4 |
| 20260901030025 | 80 | 39 | 0.0 | 1.0 | 0.00 | 0.05 | 0.05 | 95 | 1016.5 |
| 20260901025535 | 80 | 39 | 0.0 | 1.0 | 0.00 | 0.05 | 0.05 | 95 | 1016.5 |
| 20260901025029 | 80 | 39 | 0.0 | 1.0 | 0.00 | 0.05 | 0.05 | 94 | 1016.5 |
| 20260901024537 | 80 | 39 | 0.0 | 1.0 | 0.00 | 0.05 | 0.05 | 94 | 1016.4 |
| 20260901024032 | 80 | 39 | 0.0 | 1.0 | 0.00 | 0.05 | 0.05 | 94 | 1016.4 |
| 20260901023528 | 80 | 39 | 0.0 | 1.0 | 0.00 | 0.05 | 0.05 | 93 | 1016.4 |
| 20260901023037 | 80 | 39 | 0.0 | 1.0 | 0.00 | 0.05 | 0.05 | 93 | 1016.4 |
| 20260901022533 | 80 | 39 | 0.0 | 0.0 | 0.00 | 0.05 | 0.05 | 93 | 1016.4 |
| 20260901022029 | 80 | 39 | 0.0 | 1.0 | 0.00 | 0.05 | 0.05 | 92 | 1016.4 |
| 20260901021524 | 80 | 39 | 0.0 | 1.0 | 0.00 | 0.05 | 0.05 | 92 | 1016.1 |
| 20260901021035 | 80 | 39 | 0.0 | 0.0 | 0.00 | 0.05 | 0.05 | 91 | 1016.1 |
| 20260901020529 | 80 | 39 | 0.0 | 0.0 | 0.00 | 0.05 | 0.05 | 91 | 1016.1 |
| 20260901020024 | 80 | 39 | 0.0 | 1.0 | 0.00 | 0.05 | 0.05 | 91 | 1015.9 |
| 20260901015541 | 80 | 39 | 0.0 | 1.0 | 0.00 | 0.05 | 0.05 | 91 | 1015.9 |
| 20260901015033 | 80 | 39 | 0.0 | 1.0 | 0.00 | 0.05 | 0.05 | 91 | 1015.9 |
| 20260901014548 | 80 | 39 | 0.0 | 1.0 | 0.00 | 0.05 | 0.05 | 90 | 1015.9 |
| 20260901014035 | 80 | 39 | 0.0 | 2.0 | 0.00 | 0.05 | 0.05 | 90 | 1015.9 |
| 20260901013548 | 80 | 39 | 0.0 | 2.0 | 0.00 | 0.05 | 0.05 | 90 | 1015.9 |
| 20260901013035 | 80 | 39 | 0.0 | 0.0 | 0.00 | 0.05 | 0.05 | 89 | 1015.8 |
| 20260901012552 | 80 | 39 | 0.0 | 0.0 | 0.00 | 0.05 | 0.05 | 89 | 1015.8 |
| 20260901012026 | 80 | 39 | 0.0 | 0.0 | 0.00 | 0.05 | 0.05 | 88 | 1015.8 |
| 20260901011535 | 80 | 39 | 0.0 | 0.0 | 0.00 | 0.05 | 0.05 | 88 | 1015.8 |
| 20260901011031 | 81 | 39 | 0.0 | 0.0 | 0.00 | 0.05 | 0.05 | 88 | 1015.8 |
| 20260901010547 | 81 | 39 | 0.0 | 0.0 | 0.00 | 0.05 | 0.05 | 88 | 1015.8 |
| 20260901010022 | 81 | 39 | 0.0 | 0.0 | 0.00 | 0.05 | 0.05 | 88 | 1015.4 |
| 20260901005539 | 81 | 39 | 0.0 | 1.0 | 0.00 | 0.05 | 0.05 | 87 | 1015.4 |
| 20260901005032 | 81 | 39 | 0.0 | 1.0 | 0.00 | 0.05 | 0.05 | 87 | 1015.4 |
| 20260901004527 | 81 | 39 | 0.0 | 2.0 | 0.00 | 0.05 | 0.05 | 87 | 1015.4 |
| 20260901004030 | 81 | 39 | 0.0 | 2.0 | 0.00 | 0.05 | 0.05 | 87 | 1015.4 |
| 20260901003526 | 81 | 39 | 1.0 | 2.0 | 0.00 | 0.05 | 0.05 | 87 | 1015.4 |
| 20260901003041 | 81 | 38 | 1.0 | 2.0 | 0.00 | 0.05 | 0.05 | 87 | 1015.5 |
| 20260901002529 | 81 | 50 | 1.0 | 2.0 | 0.00 | 0.05 | 0.05 | 87 | 1015.5 |
| 20260901002025 | 81 | 51 | 0.0 | 2.0 | 0.00 | 0.05 | 0.05 | 87 | 1015.5 |
| 20260901001552 | 81 | 51 | 0.0 | 3.0 | 0.00 | 0.05 | 0.05 | 87 | 1015.4 |
| 20260901001025 | 81 | 63 | 0.0 | 3.0 | 0.00 | 0.05 | 0.05 | 87 | 1015.4 |
| 20260901000541 | 81 | 37 | 1.0 | 3.0 | 0.00 | 0.05 | 0.05 | 87 | 1015.4 |
| 20260901000029 | 81 | 70 | 1.0 | 2.0 | 0.00 | 0.05 | 0.05 | 87 | 1015.4 |
| 20260831235526 | 81 | 71 | 1.0 | 3.0 | 0.00 | 0.05 | 0.05 | 87 | 1015.4 |
| 20260831235035 | 82 | 77 | 1.0 | 3.0 | 0.00 | 0.05 | 0.05 | 87 | 1015.4 |
| 20260831234528 | 82 | 32 | 0.0 | 2.0 | 0.00 | 0.05 | 0.05 | 88 | 1015.3 |
| 20260831234024 | 82 | 32 | 1.0 | 2.0 | 0.00 | 0.05 | 0.05 | 88 | 1015.3 |
| 20260831233538 | 82 | 32 | 0.0 | 2.0 | 0.00 | 0.05 | 0.05 | 88 | 1015.3 |
| 20260831233030 | 82 | 32 | 0.0 | 2.0 | 0.00 | 0.05 | 0.05 | 87 | 1015.3 |
| 20260831232525 | 82 | 45 | 0.0 | 3.0 | 0.00 | 0.05 | 0.05 | 87 | 1015.3 |
| 20260831232033 | 82 | 49 | 1.0 | 3.0 | 0.00 | 0.05 | 0.05 | 87 | 1015.3 |
| 20260831231530 | 82 | 37 | 1.0 | 2.0 | 0.00 | 0.05 | 0.05 | 86 | 1015.3 |
| 20260831231026 | 82 | 12 | 1.0 | 6.0 | 0.00 | 0.05 | 0.05 | 86 | 1015.3 |
| 20260831230543 | 82 | 66 | 2.0 | 6.0 | 0.00 | 0.05 | 0.05 | 86 | 1015.3 |
| 20260831230035 | 82 | 20 | 1.0 | 3.0 | 0.00 | 0.05 | 0.05 | 85 | 1015.2 |
| 20260831225545 | 82 | 4 | 0.0 | 2.0 | 0.00 | 0.05 | 0.05 | 84 | 1015.2 |
| 20260831225021 | 82 | 4 | 1.0 | 3.0 | 0.00 | 0.05 | 0.05 | 83 | 1015.2 |
| 20260831224551 | 82 | 33 | 1.0 | 4.0 | 0.00 | 0.05 | 0.05 | 83 | 1015.1 |
| 20260831224025 | 82 | 75 | 1.0 | 4.0 | 0.00 | 0.05 | 0.05 | 84 | 1015.1 |
| 20260831223602 | 82 | 34 | 0.0 | 4.0 | 0.00 | 0.05 | 0.05 | 85 | 1015.1 |
| 20260831223030 | 82 | 46 | 1.0 | 4.0 | 0.00 | 0.05 | 0.05 | 84 | 1015.3 |
| 20260831222526 | 82 | 39 | 2.0 | 4.0 | 0.00 | 0.05 | 0.05 | 85 | 1015.3 |
| 20260831222033 | 82 | 37 | 1.0 | 4.0 | 0.00 | 0.05 | 0.05 | 85 | 1015.3 |
| 20260831221526 | 82 | 26 | 1.0 | 4.0 | 0.00 | 0.05 | 0.05 | 84 | 1015.3 |
| 20260831221035 | 83 | 31 | 1.0 | 3.0 | 0.00 | 0.05 | 0.05 | 83 | 1015.3 |
| 20260831220531 | 83 | 34 | 1.0 | 3.0 | 0.00 | 0.05 | 0.05 | 83 | 1015.3 |
| 20260831220024 | 83 | 29 | 1.0 | 3.0 | 0.00 | 0.05 | 0.05 | 82 | 1015.4 |
| 20260831215538 | 83 | 24 | 1.0 | 3.0 | 0.00 | 0.05 | 0.05 | 82 | 1015.4 |
| 20260831215032 | 83 | 40 | 1.0 | 4.0 | 0.00 | 0.05 | 0.05 | 82 | 1015.4 |
| 20260831214531 | 83 | 29 | 1.0 | 4.0 | 0.00 | 0.05 | 0.05 | 81 | 1015.4 |
| 20260831214027 | 83 | 51 | 1.0 | 2.0 | 0.00 | 0.05 | 0.05 | 80 | 1015.4 |
| 20260831213557 | 83 | 343 | 1.0 | 4.0 | 0.00 | 0.05 | 0.05 | 82 | 1015.4 |
| 20260831213033 | 83 | 343 | 0.0 | 4.0 | 0.00 | 0.05 | 0.05 | 83 | 1015.4 |
| 20260831212528 | 83 | 316 | 0.0 | 3.0 | 0.00 | 0.05 | 0.05 | 82 | 1015.4 |
| 20260831212025 | 83 | 353 | 1.0 | 5.0 | 0.00 | 0.05 | 0.05 | 82 | 1015.4 |
| 20260831211522 | 83 | 323 | 1.0 | 5.0 | 0.00 | 0.05 | 0.05 | 81 | 1015.4 |
| 20260831211035 | 83 | 292 | 2.0 | 7.0 | 0.00 | 0.05 | 0.05 | 81 | 1015.4 |
| 20260831210531 | 83 | 340 | 1.0 | 7.0 | 0.00 | 0.05 | 0.05 | 81 | 1015.4 |
| 20260831210050 | 83 | 309 | 2.0 | 5.0 | 0.00 | 0.05 | 0.05 | 81 | 1015.5 |
| 20260831205525 | 83 | 353 | 1.0 | 3.0 | 0.00 | 0.05 | 0.05 | 83 | 1015.5 |
| 20260831205031 | 83 | 354 | 1.0 | 3.0 | 0.00 | 0.05 | 0.05 | 83 | 1015.5 |
| 20260831204527 | 83 | 348 | 1.0 | 6.0 | 0.00 | 0.05 | 0.05 | 84 | 1015.8 |
| 20260831204023 | 83 | 27 | 2.0 | 6.0 | 0.00 | 0.05 | 0.05 | 84 | 1015.8 |
| 20260831203537 | 83 | 335 | 2.0 | 5.0 | 0.00 | 0.05 | 0.05 | 85 | 1015.8 |
| 20260831203033 | 83 | 27 | 1.0 | 5.0 | 0.00 | 0.05 | 0.05 | 84 | 1015.8 |
| 20260831202529 | 83 | 41 | 1.0 | 4.0 | 0.00 | 0.05 | 0.05 | 85 | 1015.8 |
| 20260831202025 | 83 | 32 | 1.0 | 3.0 | 0.00 | 0.05 | 0.05 | 86 | 1015.8 |
| 20260831201532 | 83 | 30 | 0.0 | 4.0 | 0.00 | 0.05 | 0.05 | 86 | 1015.9 |
| 20260831201029 | 83 | 37 | 2.0 | 3.0 | 0.00 | 0.05 | 0.05 | 86 | 1015.9 |
| 20260831200524 | 83 | 345 | 1.0 | 3.0 | 0.00 | 0.05 | 0.05 | 87 | 1015.9 |
| 20260831200033 | 83 | 51 | 1.0 | 3.0 | 0.00 | 0.05 | 0.05 | 86 | 1015.9 |
| 20260831195528 | 83 | 36 | 1.0 | 3.0 | 0.00 | 0.05 | 0.05 | 86 | 1015.9 |
| 20260831195035 | 83 | 37 | 1.0 | 3.0 | 0.00 | 0.05 | 0.05 | 85 | 1015.9 |
| 20260831194549 | 83 | 44 | 1.0 | 3.0 | 0.00 | 0.05 | 0.05 | 85 | 1016.2 |
| 20260831194055 | 83 | 28 | 1.0 | 3.0 | 0.00 | 0.05 | 0.05 | 85 | 1016.2 |
| 20260831193530 | 83 | 359 | 1.0 | 4.0 | 0.00 | 0.05 | 0.05 | 85 | 1016.2 |
| 20260831193026 | 83 | 30 | 1.0 | 4.0 | 0.00 | 0.05 | 0.05 | 85 | 1016.2 |
| 20260831192534 | 83 | 30 | 2.0 | 5.0 | 0.00 | 0.05 | 0.05 | 85 | 1016.2 |
| 20260831192049 | 83 | 32 | 2.0 | 6.0 | 0.00 | 0.05 | 0.05 | 85 | 1016.2 |
| 20260831191526 | 83 | 34 | 1.0 | 3.0 | 0.00 | 0.05 | 0.05 | 85 | 1016.2 |
| 20260831191034 | 83 | 51 | 1.0 | 5.0 | 0.00 | 0.05 | 0.05 | 84 | 1016.2 |
| 20260831190531 | 83 | 34 | 1.0 | 5.0 | 0.00 | 0.05 | 0.05 | 83 | 1016.2 |
| 20260831190026 | 83 | 28 | 2.0 | 3.0 | 0.00 | 0.05 | 0.05 | 83 | 1015.9 |
| 20260831185532 | 83 | 44 | 2.0 | 3.0 | 0.00 | 0.05 | 0.05 | 83 | 1015.9 |
| 20260831185027 | 83 | 40 | 2.0 | 3.0 | 0.00 | 0.05 | 0.05 | 82 | 1015.9 |
| 20260831184531 | 83 | 18 | 1.0 | 4.0 | 0.00 | 0.05 | 0.05 | 83 | 1016.0 |
| 20260831184027 | 83 | 41 | 1.0 | 4.0 | 0.00 | 0.05 | 0.05 | 84 | 1016.0 |
| 20260831183549 | 83 | 58 | 0.0 | 3.0 | 0.00 | 0.05 | 0.05 | 84 | 1016.0 |
| 20260831183027 | 83 | 27 | 0.0 | 3.0 | 0.00 | 0.05 | 0.05 | 83 | 1016.3 |
| 20260831182524 | 83 | 21 | 0.0 | 2.0 | 0.00 | 0.06 | 0.05 | 83 | 1016.3 |
| 20260831182041 | 84 | 34 | 1.0 | 2.0 | 0.00 | 0.06 | 0.05 | 83 | 1016.3 |
| 20260831181529 | 84 | 44 | 0.0 | 3.0 | 0.00 | 0.06 | 0.05 | 83 | 1016.4 |
| 20260831181026 | 84 | 39 | 1.0 | 4.0 | 0.00 | 0.06 | 0.05 | 82 | 1016.4 |
| 20260831180554 | 84 | 53 | 2.0 | 4.0 | 0.00 | 0.06 | 0.05 | 83 | 1016.4 |
| 20260831180027 | 84 | 350 | 0.0 | 3.0 | 0.00 | 0.06 | 0.05 | 83 | 1016.4 |
| 20260831175535 | 84 | 350 | 1.0 | 5.0 | 0.00 | 0.06 | 0.05 | 82 | 1016.4 |
| 20260831175031 | 85 | 3 | 0.0 | 5.0 | 0.00 | 0.06 | 0.05 | 81 | 1016.4 |
| 20260831174526 | 85 | 147 | 0.0 | 2.0 | 0.00 | 0.06 | 0.05 | 81 | 1016.7 |
| 20260831174035 | 85 | 44 | 1.0 | 5.0 | 0.00 | 0.06 | 0.05 | 80 | 1016.7 |
| 20260831173531 | 85 | 52 | 1.0 | 5.0 | 0.00 | 0.06 | 0.05 | 80 | 1016.7 |
| 20260831173025 | 86 | 43 | 1.0 | 4.0 | 0.00 | 0.06 | 0.05 | 79 | 1016.5 |
| 20260831172521 | 86 | 41 | 2.0 | 4.0 | 0.00 | 0.10 | 0.05 | 79 | 1016.5 |
| 20260831172058 | 86 | 51 | 2.0 | 5.0 | 0.00 | 0.10 | 0.05 | 81 | 1016.5 |
| 20260831171529 | 86 | 39 | 2.0 | 5.0 | 0.00 | 0.10 | 0.05 | 82 | 1016.7 |
| 20260831171026 | 86 | 18 | 1.0 | 5.0 | 0.00 | 0.10 | 0.05 | 82 | 1016.7 |
| 20260831170542 | 85 | 66 | 3.0 | 5.0 | 0.00 | 0.10 | 0.05 | 82 | 1016.7 |
| 20260831170053 | 86 | 39 | 3.0 | 5.0 | 0.00 | 0.10 | 0.05 | 81 | 1016.5 |
| 20260831165548 | 86 | 30 | 1.0 | 4.0 | 0.00 | 0.10 | 0.05 | 82 | 1016.5 |
| 20260831165023 | 86 | 38 | 2.0 | 4.0 | 0.00 | 0.10 | 0.05 | 83 | 1016.5 |
| 20260831164530 | 85 | 115 | 1.0 | 4.0 | 0.00 | 0.10 | 0.05 | 83 | 1016.7 |
| 20260831164027 | 85 | 39 | 1.0 | 4.0 | 0.00 | 0.10 | 0.05 | 82 | 1016.7 |
| 20260831163521 | 85 | 16 | 1.0 | 5.0 | 0.00 | 0.10 | 0.05 | 83 | 1016.7 |
| 20260831163038 | 85 | 37 | 2.0 | 6.0 | 0.00 | 0.10 | 0.05 | 83 | 1016.9 |
| 20260831162533 | 85 | 19 | 4.0 | 6.0 | 0.00 | 0.69 | 0.05 | 84 | 1016.9 |
| 20260831162029 | 85 | 36 | 2.0 | 6.0 | 0.00 | 0.69 | 0.05 | 83 | 1016.9 |
| 20260831161554 | 85 | 19 | 2.0 | 6.0 | 0.00 | 0.69 | 0.05 | 84 | 1017.1 |
| 20260831161029 | 85 | 35 | 2.0 | 5.0 | 0.00 | 0.69 | 0.05 | 86 | 1017.1 |
| 20260831160524 | 85 | 23 | 2.0 | 5.0 | 0.00 | 0.69 | 0.05 | 85 | 1017.1 |
| 20260831160037 | 85 | 56 | 1.0 | 4.0 | 0.00 | 0.69 | 0.05 | 85 | 1017.3 |
| 20260831155533 | 84 | 66 | 1.0 | 4.0 | 0.00 | 0.69 | 0.05 | 85 | 1017.3 |
| 20260831155029 | 84 | 23 | 1.0 | 3.0 | 0.00 | 0.69 | 0.05 | 86 | 1017.3 |
| 20260831154526 | 84 | 9 | 0.0 | 4.0 | 0.00 | 0.69 | 0.05 | 88 | 1017.0 |
| 20260831154059 | 84 | 47 | 2.0 | 4.0 | 0.00 | 0.69 | 0.05 | 90 | 1017.0 |
| 20260831153532 | 84 | 51 | 1.0 | 3.0 | 0.00 | 0.69 | 0.05 | 91 | 1017.0 |
| 20260831153028 | 83 | 54 | 1.0 | 4.0 | 0.00 | 0.69 | 0.05 | 93 | 1017.1 |
| 20260831152527 | 83 | 40 | 2.0 | 4.0 | 0.00 | 0.69 | 0.05 | 95 | 1017.1 |
| 20260831152024 | 83 | 37 | 2.0 | 3.0 | 0.00 | 0.69 | 0.05 | 97 | 1017.1 |
| 20260831151539 | 82 | 41 | 1.0 | 4.0 | 0.00 | 0.69 | 0.05 | 99 | 1016.9 |
| 20260831151033 | 82 | 38 | 1.0 | 4.0 | 0.00 | 0.69 | 0.05 | 100 | 1016.9 |
| 20260831150529 | 82 | 61 | 1.0 | 3.0 | 0.00 | 0.69 | 0.05 | 100 | 1016.9 |
| 20260831150036 | 82 | 53 | 1.0 | 3.0 | 0.00 | 0.69 | 0.05 | 100 | 1017.0 |
| 20260831145532 | 82 | 45 | 1.0 | 2.0 | 0.00 | 0.69 | 0.05 | 100 | 1017.0 |
| 20260831145027 | 81 | 93 | 0.0 | 2.0 | 0.00 | 0.69 | 0.05 | 100 | 1017.0 |
| 20260831144536 | 81 | 93 | 1.0 | 3.0 | 0.00 | 0.69 | 0.05 | 100 | 1017.0 |
| 20260831144032 | 81 | 33 | 0.0 | 3.0 | 0.00 | 0.69 | 0.05 | 100 | 1017.0 |
| 20260831143528 | 81 | 38 | 0.0 | 4.0 | 0.00 | 0.69 | 0.05 | 100 | 1017.0 |
| 20260831143026 | 81 | 51 | 1.0 | 3.0 | 0.00 | 0.69 | 0.05 | 100 | 1017.0 |
| 20260831142535 | 81 | 8 | 1.0 | 2.0 | 0.00 | 0.69 | 0.05 | 100 | 1017.0 |
| 20260831142047 | 80 | 8 | 0.0 | 2.0 | 0.00 | 0.69 | 0.05 | 100 | 1017.0 |
| 20260831141522 | 80 | 25 | 1.0 | 2.0 | 0.00 | 0.69 | 0.05 | 100 | 1016.9 |
| 20260831141030 | 80 | 22 | 0.0 | 3.0 | 0.00 | 0.69 | 0.05 | 100 | 1016.9 |
| 20260831140528 | 80 | 50 | 0.0 | 3.0 | 0.00 | 0.69 | 0.05 | 100 | 1016.9 |
| 20260831140024 | 80 | 39 | 1.0 | 2.0 | 0.00 | 0.69 | 0.05 | 100 | 1016.9 |
| 20260831135529 | 80 | 13 | 0.0 | 2.0 | 0.00 | 0.69 | 0.05 | 100 | 1016.9 |
| 20260831135023 | 80 | 351 | 0.0 | 1.0 | 0.00 | 0.69 | 0.05 | 100 | 1016.9 |
| 20260831134531 | 80 | 351 | 0.0 | 3.0 | 0.00 | 0.69 | 0.05 | 100 | 1016.7 |
| 20260831134026 | 79 | 351 | 0.0 | 3.0 | 0.00 | 0.69 | 0.05 | 100 | 1016.7 |